STARLINK-11593, 63318

Orbit data source: Space-Track

STARLINK-11593, 63318 is a payload satellite owned by SpaceX/Seattle (US) in LEO that was launched on Tue, 18 Mar 2025 UTC via an FALCON 9 launch vehicle from the Air Force Eastern Test Range (AFETR). Payload-class satellites include a variety of spacecraft equipped with specific instruments for various scientific and technological missions. These include communications satellites like Starlink; space stations such as the ISS; scientific satellites like the Hubble; Earth observation satellites from companies like Planet Labs, Umbra, and HawkEye 360; GPS; miniature CubeSats for education and research; and military/defense satellites.

Loading next visibility...
Identifier
63318, 2025-057M
Orbit
LEO
Last TLE update
11 hours ago
Origin
Manufacturer
SpaceX/Seattle
Mission
Operational Commercial Communications
Bus & Motor
STARLINK V2M, Unknown motor
Mass
730 kg wet, ~700 kg dry
Launch date (UTC)
2025-03-18 (3 months ago)
Launch vehicle
FALCON 9
Launch site
Air Force Eastern Test Range (AFETR)
Object type
Payload
Rocket body
Debris
Shape & HBR
Box + 2 Pan, 29 m
Radar Cross Section
36.964 m², Large (>1 m²)

Expand to show TLE details & history

TLE from 11 hours ago
0 STARLINK-11593
1 63318U 25057M   25182.74730656  .00262439  00000-0  19765-2 0  9992
2 63318  43.0007 336.8800 0003044 269.0377  91.0142 15.70938806 17743
Epoch: 2025-07-01T17:56Z
TLE epoch observation values (Epoch: 2025-07-01T17:56:07.286Z)
Latitude
-0.00003°
Longitude
147.81129°
Altitude
356.021 km
Speed
7.697 km/s
True Right ascension
22h 27m 31s
True Declination
0° 00' 00"
Sunlit
Object was in full shadow at epoch
Visualization orbit readout
Latitude
-25.31178°
Longitude
114.88183°
Altitude
360.494 km
Speed
7.694 km/s
Apparent Right ascension
23h 30m 57s
Apparent Declination
-50° 23' 20"
Sunlit
Object is in full shadow
Visualization observer readout
Local Sidereal Time
16:08:32
Azimuth
126.828° SE
Elevation
-41.791°
Doppler factor
1
Orbital elements
Apogee altitude
360.245 km
Perigee altitude
356.144 km
Semi-major axis
6,736.331 km
Eccentricity
0.0003
Inclination
43.0007°
RAAN
336.88°
Arg. of periapsis
269.0377°
True anomaly
Unknown
Mean anomaly
91.0142°
Eccentric anomaly
Unknown
Mean motion
3.92562 °/min
Orbital period
91.71 mins
BSTAR
0.0019765
Loading maneuver chart data...
Loading SW <> Apogee altitude chart data...
Loading historical data...
Loading historical data...
Loading historical data...
Loading historical data...
Loading historical data...
Loading historical data...
Loading historical data...

STARLINK-11593 Visibility forecast

Observer location: undefined°, undefined°

Span
Click to sort rows by Start time (UTC) header in descending order
Start Az.
Max El. time (UTC)
Max El. Az.
Max El.
End time (UTC)
End Az.
5 mins2025-07-02 14:00:07.864Z228.65° WSW2025-07-02 14:02:07.864Z169.976° S37.368°2025-07-02 14:05:07.864Z78.627° E
4 mins2025-07-02 15:37:07.864Z290.561° WNW2025-07-02 15:38:07.864Z330.976° NNW36.038°2025-07-02 15:41:07.864Z68.476° E
4 mins2025-07-02 17:13:07.864Z300.73° NW2025-07-02 17:15:07.864Z43.865° NE35.968°2025-07-02 17:17:07.864Z85.836° E
4 mins2025-07-02 18:49:07.864Z268.306° W2025-07-02 18:51:07.864Z182.845° SSW32.603°2025-07-02 18:53:07.864Z136.176° SSE
|